PCM612 KONT-KSBA

Flight info

Callsign PCM612
Flight time 0h 56m
Altitude 8000
Route POM1 POM V264 ITSME V186 FIM V386 RZS
Aircraft C208/L-SDFG/S

Departure

Time 2026-05-04 21:45
Airport Ontario International Airport (KONT)

Arrival

Time 2026-05-04 22:41
Airport Santa Barbara Municipal Airport (KSBA)
Time Latitude Longitude Altitude Speed Heading
2026-05-04 21:28 34.05936 -117.62288 944 ft 0 kts 45°
2026-05-04 21:36 34.05940 -117.62287 944 ft 0 kts 339°
2026-05-04 21:36 34.05944 -117.62293 944 ft 2 kts 278°
2026-05-04 21:37 34.05932 -117.62311 944 ft 0 kts 184°
2026-05-04 21:37 34.05886 -117.62309 944 ft 6 kts 172°
2026-05-04 21:37 34.05871 -117.62260 944 ft 13 kts 88°
2026-05-04 21:38 34.05871 -117.62125 944 ft 16 kts 89°
2026-05-04 21:38 34.05871 -117.61942 944 ft 28 kts 90°
2026-05-04 21:38 34.05845 -117.61780 943 ft 9 kts 169°
2026-05-04 21:38 34.05807 -117.61766 943 ft 9 kts 134°
2026-05-04 21:39 34.05798 -117.61653 943 ft 15 kts 89°
2026-05-04 21:39 34.05798 -117.61525 942 ft 16 kts 90°
2026-05-04 21:39 34.05798 -117.61362 942 ft 20 kts 90°
2026-05-04 21:39 34.05798 -117.61205 943 ft 18 kts 90°
2026-05-04 21:40 34.05798 -117.61037 943 ft 18 kts 91°
2026-05-04 21:40 34.05797 -117.60921 943 ft 13 kts 88°
2026-05-04 21:40 34.05801 -117.60761 944 ft 25 kts 90°
2026-05-04 21:40 34.05799 -117.60571 945 ft 19 kts 90°
2026-05-04 21:41 34.05799 -117.60369 944 ft 28 kts 91°
2026-05-04 21:41 34.05799 -117.60119 944 ft 27 kts 88°
2026-05-04 21:41 34.05799 -117.59893 943 ft 32 kts 90°
2026-05-04 21:41 34.05799 -117.59675 943 ft 19 kts 91°
2026-05-04 21:42 34.05799 -117.59521 942 ft 21 kts 90°
2026-05-04 21:42 34.05799 -117.59364 942 ft 18 kts 89°
2026-05-04 21:42 34.05799 -117.59194 943 ft 17 kts 89°
2026-05-04 21:42 34.05801 -117.59044 944 ft 21 kts 90°
2026-05-04 21:43 34.05779 -117.58989 944 ft 0 kts 169°
2026-05-04 21:44 34.05746 -117.58985 944 ft 10 kts 177°
2026-05-04 21:44 34.05701 -117.58986 945 ft 6 kts 184°
2026-05-04 21:44 34.05687 -117.59009 945 ft 2 kts 273°
2026-05-04 21:44 34.05688 -117.59210 942 ft 52 kts 270°
2026-05-04 21:45 34.05691 -117.59792 1054 ft 81 kts 266°
2026-05-04 21:45 34.05650 -117.60542 1302 ft 93 kts 262°
2026-05-04 21:45 34.05689 -117.61304 1700 ft 90 kts 275°
2026-05-04 21:45 34.05795 -117.62023 2138 ft 82 kts 273°
2026-05-04 21:46 34.05854 -117.62693 2527 ft 81 kts 269°
2026-05-04 21:46 34.05909 -117.63376 2855 ft 83 kts 275°
2026-05-04 21:46 34.06070 -117.64070 3159 ft 86 kts 277°
2026-05-04 21:46 34.06116 -117.64807 3446 ft 90 kts 267°
2026-05-04 21:47 34.06206 -117.65561 3776 ft 94 kts 279°
2026-05-04 21:47 34.06340 -117.66336 4149 ft 92 kts 274°
2026-05-04 21:47 34.06435 -117.67063 4586 ft 83 kts 271°
2026-05-04 21:47 34.06480 -117.67764 4892 ft 88 kts 272°
2026-05-04 21:48 34.06554 -117.68529 5151 ft 95 kts 274°
2026-05-04 21:48 34.06646 -117.69346 5427 ft 101 kts 275°
2026-05-04 21:48 34.06751 -117.70208 5691 ft 107 kts 275°
2026-05-04 21:48 34.06863 -117.71118 5956 ft 112 kts 275°
2026-05-04 21:49 34.06977 -117.72053 6235 ft 114 kts 275°
2026-05-04 21:49 34.07060 -117.72684 6415 ft 117 kts 276°
2026-05-04 21:49 34.07185 -117.73691 6632 ft 126 kts 276°
2026-05-04 21:49 34.07319 -117.74761 6838 ft 132 kts 276°
2026-05-04 21:50 34.07462 -117.75869 7016 ft 137 kts 276°
2026-05-04 21:50 34.07607 -117.77035 7030 ft 146 kts 276°
2026-05-04 21:50 34.07763 -117.78244 7035 ft 146 kts 276°
2026-05-04 21:50 34.07823 -117.79466 7028 ft 147 kts 267°
2026-05-04 21:51 34.07791 -117.80696 7029 ft 148 kts 268°
2026-05-04 21:51 34.07770 -117.81956 7027 ft 152 kts 268°
2026-05-04 21:51 34.07754 -117.83209 7183 ft 144 kts 268°
2026-05-04 21:51 34.07737 -117.84374 7464 ft 134 kts 268°
2026-05-04 21:52 34.07720 -117.85472 7754 ft 128 kts 267°
2026-05-04 21:52 34.07702 -117.86863 8144 ft 120 kts 266°
2026-05-04 21:52 34.07688 -117.87520 8338 ft 117 kts 266°
2026-05-04 21:52 34.07670 -117.88480 8634 ft 113 kts 266°
2026-05-04 21:53 34.07657 -117.89416 8932 ft 110 kts 266°
2026-05-04 21:53 34.07643 -117.90334 9234 ft 108 kts 266°
2026-05-04 21:53 34.07630 -117.91234 9531 ft 107 kts 267°
2026-05-04 21:53 34.07618 -117.92132 9803 ft 108 kts 267°
2026-05-04 21:54 34.07600 -117.93058 10007 ft 115 kts 266°
2026-05-04 21:54 34.07584 -117.94098 10023 ft 131 kts 267°
2026-05-04 21:54 34.07568 -117.95242 10022 ft 140 kts 267°
2026-05-04 21:54 34.07549 -117.96440 10024 ft 145 kts 267°
2026-05-04 21:55 34.07530 -117.97672 10021 ft 148 kts 267°
2026-05-04 21:55 34.07510 -117.98926 10022 ft 150 kts 267°
2026-05-04 21:55 34.07494 -118.00189 10019 ft 151 kts 269°
2026-05-04 21:55 34.07760 -118.01417 10016 ft 153 kts 288°
2026-05-04 21:56 34.08146 -118.02618 10019 ft 154 kts 286°
2026-05-04 21:56 34.08511 -118.03820 10017 ft 155 kts 287°
2026-05-04 21:56 34.08887 -118.05045 10014 ft 156 kts 285°
2026-05-04 21:56 34.09247 -118.06219 10018 ft 155 kts 285°
2026-05-04 21:57 34.09621 -118.07439 10017 ft 155 kts 287°
2026-05-04 21:57 34.09995 -118.08658 10018 ft 155 kts 287°
2026-05-04 21:57 34.10370 -118.09880 10020 ft 155 kts 286°
2026-05-04 21:57 34.10743 -118.11096 10020 ft 155 kts 287°
2026-05-04 21:58 34.11116 -118.12318 10019 ft 156 kts 287°
2026-05-04 21:58 34.11489 -118.13535 10001 ft 154 kts 286°
2026-05-04 21:58 34.11860 -118.14746 10003 ft 154 kts 287°
2026-05-04 21:58 34.12231 -118.15960 10002 ft 155 kts 287°
2026-05-04 21:59 34.12603 -118.17179 10005 ft 154 kts 287°
2026-05-04 21:59 34.12975 -118.18393 10008 ft 154 kts 286°
2026-05-04 21:59 34.13343 -118.19600 10011 ft 153 kts 286°
2026-05-04 21:59 34.13711 -118.20803 10011 ft 152 kts 286°
2026-05-04 22:00 34.14077 -118.22002 10007 ft 153 kts 287°
2026-05-04 22:00 34.14445 -118.23211 10006 ft 154 kts 287°
2026-05-04 22:00 34.14815 -118.24424 10010 ft 155 kts 287°
2026-05-04 22:00 34.15186 -118.25642 10013 ft 155 kts 287°
2026-05-04 22:01 34.15558 -118.26862 10017 ft 155 kts 287°
2026-05-04 22:01 34.15931 -118.28091 10013 ft 157 kts 287°
2026-05-04 22:01 34.16307 -118.29324 10010 ft 156 kts 287°
2026-05-04 22:01 34.16681 -118.30553 10009 ft 155 kts 287°
2026-05-04 22:02 34.17052 -118.31772 10008 ft 155 kts 287°
2026-05-04 22:02 34.17420 -118.32987 10009 ft 153 kts 286°
2026-05-04 22:02 34.17787 -118.34194 10009 ft 153 kts 287°
2026-05-04 22:02 34.18156 -118.35401 10008 ft 154 kts 287°
2026-05-04 22:03 34.18523 -118.36611 10010 ft 153 kts 286°
2026-05-04 22:03 34.18888 -118.37813 10007 ft 153 kts 287°
2026-05-04 22:03 34.19254 -118.39024 10006 ft 154 kts 287°
2026-05-04 22:03 34.19624 -118.40241 10006 ft 154 kts 287°
2026-05-04 22:04 34.19990 -118.41445 10006 ft 154 kts 287°
2026-05-04 22:04 34.20359 -118.42664 9986 ft 155 kts 287°
2026-05-04 22:04 34.20730 -118.43891 9986 ft 155 kts 287°
2026-05-04 22:04 34.21100 -118.45113 9988 ft 155 kts 287°
2026-05-04 22:05 34.21470 -118.46335 9992 ft 155 kts 287°
2026-05-04 22:05 34.21840 -118.47557 9989 ft 155 kts 287°
2026-05-04 22:05 34.22213 -118.48789 9986 ft 157 kts 287°
2026-05-04 22:05 34.22628 -118.50013 9985 ft 158 kts 290°
2026-05-04 22:06 34.23046 -118.51235 9988 ft 156 kts 288°
2026-05-04 22:06 34.23457 -118.52442 9989 ft 154 kts 289°
2026-05-04 22:06 34.23866 -118.53643 9987 ft 155 kts 289°
2026-05-04 22:06 34.24280 -118.54850 9987 ft 156 kts 289°
2026-05-04 22:07 34.24691 -118.56050 9991 ft 153 kts 288°
2026-05-04 22:07 34.25098 -118.57232 9990 ft 152 kts 288°
2026-05-04 22:07 34.25501 -118.58409 9987 ft 152 kts 289°
2026-05-04 22:07 34.25908 -118.59592 9986 ft 153 kts 289°
2026-05-04 22:08 34.26318 -118.60791 9983 ft 156 kts 290°
2026-05-04 22:08 34.26732 -118.61997 9989 ft 155 kts 288°
2026-05-04 22:08 34.27137 -118.63185 9985 ft 156 kts 290°
2026-05-04 22:08 34.27557 -118.64408 9985 ft 157 kts 289°
2026-05-04 22:09 34.27979 -118.65635 9983 ft 159 kts 289°
2026-05-04 22:09 34.28401 -118.66868 9980 ft 159 kts 291°
2026-05-04 22:09 34.28821 -118.68104 9981 ft 157 kts 291°
2026-05-04 22:09 34.29238 -118.69318 9978 ft 156 kts 291°
2026-05-04 22:10 34.29655 -118.70534 9975 ft 158 kts 291°
2026-05-04 22:10 34.30072 -118.71758 9983 ft 158 kts 290°
2026-05-04 22:10 34.30493 -118.72997 9986 ft 160 kts 290°
2026-05-04 22:10 34.30920 -118.74232 9982 ft 158 kts 291°
2026-05-04 22:11 34.31334 -118.75448 9975 ft 155 kts 290°
2026-05-04 22:11 34.31745 -118.76663 9964 ft 157 kts 291°
2026-05-04 22:11 34.32163 -118.77888 9964 ft 158 kts 291°
2026-05-04 22:11 34.32580 -118.79110 9977 ft 158 kts 291°
2026-05-04 22:12 34.33003 -118.80347 9982 ft 162 kts 290°
2026-05-04 22:12 34.33438 -118.81628 9984 ft 167 kts 291°
2026-05-04 22:12 34.33883 -118.82940 9979 ft 169 kts 291°
2026-05-04 22:12 34.34324 -118.84235 9984 ft 165 kts 291°
2026-05-04 22:13 34.34759 -118.85513 9977 ft 163 kts 291°
2026-05-04 22:13 34.35186 -118.86766 9971 ft 160 kts 291°
2026-05-04 22:13 34.35610 -118.88017 9974 ft 162 kts 290°
2026-05-04 22:13 34.35875 -118.89338 9978 ft 162 kts 281°
2026-05-04 22:14 34.36098 -118.90673 9995 ft 161 kts 282°
2026-05-04 22:14 34.36330 -118.92000 9995 ft 161 kts 282°
2026-05-04 22:14 34.36564 -118.93331 9978 ft 162 kts 281°
2026-05-04 22:14 34.36796 -118.94661 9976 ft 162 kts 281°
2026-05-04 22:15 34.37029 -118.96004 9970 ft 164 kts 282°
2026-05-04 22:15 34.37267 -118.97365 9963 ft 166 kts 283°
2026-05-04 22:15 34.37505 -118.98700 9965 ft 163 kts 283°
2026-05-04 22:15 34.37734 -119.00037 9963 ft 161 kts 283°
2026-05-04 22:16 34.37952 -119.01352 9963 ft 158 kts 283°
2026-05-04 22:16 34.38183 -119.02649 9973 ft 158 kts 284°
2026-05-04 22:16 34.38418 -119.03955 9970 ft 160 kts 283°
2026-05-04 22:16 34.38649 -119.05267 9971 ft 160 kts 282°
2026-05-04 22:17 34.38881 -119.06592 10000 ft 162 kts 283°
2026-05-04 22:17 34.39110 -119.07924 10001 ft 161 kts 283°
2026-05-04 22:17 34.39341 -119.09249 9999 ft 161 kts 282°
2026-05-04 22:17 34.39573 -119.10575 9998 ft 160 kts 283°
2026-05-04 22:18 34.39800 -119.11884 9998 ft 158 kts 283°
2026-05-04 22:18 34.40027 -119.13186 9999 ft 157 kts 284°
2026-05-04 22:18 34.40249 -119.14472 9998 ft 156 kts 283°
2026-05-04 22:18 34.40473 -119.15765 9998 ft 159 kts 282°
2026-05-04 22:19 34.40700 -119.17085 9996 ft 161 kts 283°
2026-05-04 22:19 34.40929 -119.18408 9995 ft 159 kts 284°
2026-05-04 22:19 34.41158 -119.19714 9992 ft 159 kts 283°
2026-05-04 22:19 34.41386 -119.21032 9992 ft 161 kts 283°
2026-05-04 22:20 34.41616 -119.22364 9990 ft 162 kts 283°
2026-05-04 22:20 34.41847 -119.23700 9989 ft 162 kts 282°
2026-05-04 22:20 34.42077 -119.25040 9993 ft 163 kts 282°
2026-05-04 22:20 34.42310 -119.26389 9992 ft 164 kts 281°
2026-05-04 22:21 34.42543 -119.27748 9990 ft 165 kts 281°
2026-05-04 22:21 34.42778 -119.29111 9991 ft 166 kts 281°
2026-05-04 22:21 34.43012 -119.30476 9991 ft 166 kts 281°
2026-05-04 22:21 34.43249 -119.31853 9992 ft 166 kts 281°
2026-05-04 22:22 34.43483 -119.33214 9992 ft 165 kts 281°
2026-05-04 22:22 34.43715 -119.34565 9985 ft 163 kts 281°
2026-05-04 22:22 34.43945 -119.35906 9981 ft 162 kts 282°
2026-05-04 22:22 34.44174 -119.37241 9983 ft 161 kts 282°
2026-05-04 22:23 34.44402 -119.38565 9985 ft 161 kts 282°
2026-05-04 22:23 34.44629 -119.39899 9982 ft 162 kts 282°
2026-05-04 22:23 34.44858 -119.41238 9981 ft 163 kts 281°
2026-05-04 22:23 34.45089 -119.42585 9979 ft 164 kts 281°
2026-05-04 22:24 34.45321 -119.43945 9977 ft 165 kts 282°
2026-05-04 22:24 34.45553 -119.45307 9972 ft 166 kts 282°
2026-05-04 22:24 34.45787 -119.46677 9973 ft 166 kts 282°
2026-05-04 22:24 34.46022 -119.48048 9975 ft 167 kts 282°
2026-05-04 22:25 34.46256 -119.49422 9985 ft 166 kts 282°
2026-05-04 22:25 34.46489 -119.50801 9864 ft 167 kts 282°
2026-05-04 22:25 34.46719 -119.52139 9671 ft 159 kts 282°
2026-05-04 22:25 34.46938 -119.53432 9474 ft 155 kts 282°
2026-05-04 22:26 34.47157 -119.54704 9284 ft 154 kts 280°
2026-05-04 22:26 34.47372 -119.55978 9089 ft 155 kts 280°
2026-05-04 22:26 34.47585 -119.57256 8900 ft 154 kts 280°
2026-05-04 22:26 34.47801 -119.58523 8724 ft 154 kts 280°
2026-05-04 22:27 34.48017 -119.59793 8546 ft 154 kts 280°
2026-05-04 22:27 34.48233 -119.61057 8373 ft 153 kts 280°
2026-05-04 22:27 34.48444 -119.62319 8190 ft 152 kts 280°
2026-05-04 22:27 34.48658 -119.63583 8016 ft 154 kts 280°
2026-05-04 22:28 34.48872 -119.64848 7838 ft 154 kts 281°
2026-05-04 22:28 34.49089 -119.66128 7666 ft 155 kts 279°
2026-05-04 22:28 34.49305 -119.67415 7492 ft 157 kts 280°
2026-05-04 22:28 34.49522 -119.68709 7334 ft 156 kts 279°
2026-05-04 22:29 34.49738 -119.69980 7191 ft 154 kts 279°
2026-05-04 22:29 34.49951 -119.71244 7046 ft 152 kts 279°
2026-05-04 22:29 34.50161 -119.72492 6903 ft 151 kts 279°
2026-05-04 22:29 34.50357 -119.73736 6752 ft 150 kts 275°
2026-05-04 22:30 34.50172 -119.74965 6604 ft 150 kts 244°
2026-05-04 22:30 34.49507 -119.75933 6434 ft 153 kts 217°
2026-05-04 22:30 34.48509 -119.76383 6259 ft 157 kts 188°
2026-05-04 22:30 34.47419 -119.76218 6081 ft 159 kts 169°
2026-05-04 22:31 34.46337 -119.75931 5897 ft 160 kts 172°
2026-05-04 22:31 34.45262 -119.75667 5656 ft 155 kts 171°
2026-05-04 22:31 34.44222 -119.75413 5395 ft 151 kts 171°
2026-05-04 22:31 34.43199 -119.75160 5139 ft 150 kts 172°
2026-05-04 22:32 34.42187 -119.74909 4972 ft 147 kts 171°
2026-05-04 22:32 34.41182 -119.74657 4851 ft 149 kts 172°
2026-05-04 22:32 34.40149 -119.74402 4735 ft 154 kts 172°
2026-05-04 22:32 34.39110 -119.74022 4610 ft 161 kts 154°
2026-05-04 22:33 34.38167 -119.73296 4513 ft 156 kts 155°
2026-05-04 22:33 34.37198 -119.72806 4506 ft 147 kts 164°
2026-05-04 22:33 34.36240 -119.72402 4501 ft 145 kts 165°
2026-05-04 22:33 34.35305 -119.72009 4500 ft 144 kts 162°
2026-05-04 22:34 34.34514 -119.71257 4321 ft 152 kts 121°
2026-05-04 22:34 34.34345 -119.70011 4129 ft 153 kts 79°
2026-05-04 22:34 34.34880 -119.68924 3869 ft 152 kts 35°
2026-05-04 22:34 34.35847 -119.68524 3615 ft 144 kts 355°
2026-05-04 22:35 34.36717 -119.68880 3334 ft 125 kts 318°
2026-05-04 22:35 34.37223 -119.69667 3077 ft 115 kts 289°
2026-05-04 22:35 34.37552 -119.70520 2816 ft 107 kts 289°
2026-05-04 22:35 34.37871 -119.71310 2540 ft 102 kts 291°
2026-05-04 22:36 34.38175 -119.72065 2266 ft 98 kts 290°
2026-05-04 22:36 34.38437 -119.72797 1997 ft 91 kts 276°
2026-05-04 22:36 34.38534 -119.73273 1893 ft 86 kts 286°
2026-05-04 22:36 34.38750 -119.73924 1719 ft 84 kts 283°
2026-05-04 22:37 34.39034 -119.74495 1697 ft 72 kts 293°
2026-05-04 22:37 34.39301 -119.75055 1580 ft 86 kts 294°
2026-05-04 22:37 34.39604 -119.75721 1430 ft 93 kts 294°
2026-05-04 22:37 34.39903 -119.76434 1302 ft 88 kts 292°
2026-05-04 22:38 34.40170 -119.77011 1165 ft 76 kts 296°
2026-05-04 22:38 34.40423 -119.77559 1052 ft 73 kts 295°
2026-05-04 22:38 34.40673 -119.78104 1015 ft 75 kts 292°
2026-05-04 22:38 34.40899 -119.78658 925 ft 71 kts 291°
2026-05-04 22:39 34.41113 -119.79156 827 ft 65 kts 296°
2026-05-04 22:39 34.41436 -119.79573 736 ft 70 kts 304°
2026-05-04 22:39 34.41813 -119.79960 615 ft 74 kts 305°
2026-05-04 22:39 34.42174 -119.80425 582 ft 75 kts 302°
2026-05-04 22:40 34.42505 -119.80882 539 ft 70 kts 303°
2026-05-04 22:40 34.42768 -119.81367 421 ft 68 kts 282°
2026-05-04 22:40 34.42825 -119.81915 319 ft 65 kts 268°
2026-05-04 22:40 34.42818 -119.82433 220 ft 59 kts 265°
2026-05-04 22:41 34.42803 -119.82942 123 ft 63 kts 265°
2026-05-04 22:41 34.42791 -119.83468 52 ft 59 kts 265°
2026-05-04 22:41 34.42781 -119.83916 19 ft 47 kts 268°
2026-05-04 22:41 34.42775 -119.84220 17 ft 21 kts 268°
2026-05-04 22:42 34.42771 -119.84393 17 ft 22 kts 268°
2026-05-04 22:42 34.42768 -119.84539 15 ft 18 kts 268°
2026-05-04 22:42 34.42732 -119.84625 15 ft 12 kts 205°
2026-05-04 22:42 34.42666 -119.84617 16 ft 7 kts 124°
2026-05-04 22:43 34.42657 -119.84518 16 ft 19 kts 86°
2026-05-04 22:43 34.42658 -119.84351 17 ft 16 kts 88°
2026-05-04 22:43 34.42665 -119.84182 17 ft 19 kts 90°
2026-05-04 22:43 34.42669 -119.84070 18 ft 11 kts 89°
2026-05-04 22:44 34.42670 -119.83927 19 ft 16 kts 88°
2026-05-04 22:44 34.42648 -119.83827 17 ft 9 kts 167°